GW5346 Weather Reports


time (UTC)temp
C
wind
direction
speed
KPH
gust
KPH
rain 1hr
cm
rain 24hr
cm
rain mn
cm
humidity
%
barometer
mb
20260504081601 10 20 20.9 30.6 0.00 0.03 0.00 49 1015.6
20260504044550 13 17 19.3 29.0 0.00 0.03 0.03 35 1009.9
20260504043057 14 20 16.1 20.9 0.00 0.03 0.03 34 1009.4
20260504041551 14 22 11.3 17.7 0.00 0.03 0.03 34 1009.1
20260504040051 15 22 12.9 20.9 0.00 0.03 0.03 33 1008.7
20260504034545 15 24 20.9 33.8 0.00 0.03 0.03 33 1008.3
20260504033051 16 36 19.3 35.4 0.00 0.03 0.03 32 1008.0
20260504031543 16 23 22.5 30.6 0.00 0.03 0.03 30 1007.7
20260504030052 17 352 16.1 25.7 0.00 0.03 0.03 25 1007.2
20260504024552 17 36 3.2 8.0 0.00 0.03 0.03 22 1006.8
20260504023046 18 34 9.7 14.5 0.00 0.03 0.03 22 1006.9
20260504021554 20 14 9.7 19.3 0.00 0.03 0.03 21 1006.9
20260504020127 21 10 16.1 25.7 0.00 0.03 0.03 20 1006.8
20260504014602 21 9 17.7 25.7 0.00 0.03 0.03 19 1006.9
20260504013059 22 348 19.3 27.4 0.00 0.03 0.03 19 1006.8
20260504011548 22 14 20.9 32.2 0.00 0.03 0.03 18 1006.9
20260504010051 23 341 20.9 30.6 0.00 0.03 0.03 18 1006.9
20260504004618 23 11 24.1 37.0 0.00 0.03 0.03 18 1007.0
20260504003053 23 347 14.5 35.4 0.00 0.03 0.03 17 1007.0
20260504001615 24 342 17.7 30.6 0.00 0.03 0.03 16 1007.1
20260503234547 24 292 19.3 30.6 0.00 0.03 0.03 16 1007.1
20260503233045 24 322 12.9 29.0 0.00 0.03 0.03 16 1007.2
20260503231552 24 275 16.1 27.4 0.00 0.03 0.03 15 1007.4
20260503230105 24 296 19.3 30.6 0.00 0.03 0.03 16 1007.6
20260503224551 24 328 12.9 30.6 0.00 0.03 0.03 15 1007.8
20260503223049 24 283 20.9 40.2 0.00 0.03 0.03 15 1008.1
20260503221556 24 284 8.0 30.6 0.00 0.03 0.03 16 1008.3
20260503220051 24 316 14.5 32.2 0.00 0.03 0.03 15 1008.4
20260503214545 23 331 16.1 30.6 0.00 0.03 0.03 17 1008.7
20260503213047 23 263 14.5 32.2 0.00 0.03 0.03 16 1008.9
20260503211554 23 314 16.1 29.0 0.00 0.03 0.03 16 1009.3
20260503210051 23 297 17.7 27.4 0.00 0.03 0.03 17 1009.5
20260503204550 23 338 14.5 27.4 0.00 0.03 0.03 17 1009.6
20260503203102 22 269 14.5 30.6 0.00 0.03 0.03 17 1009.9
20260503201546 22 260 12.9 20.9 0.00 0.03 0.03 19 1010.0
20260503200105 22 322 19.3 40.2 0.00 0.03 0.03 19 1010.4
20260503194545 22 341 8.0 22.5 0.00 0.03 0.03 20 1010.7
20260503193049 22 311 20.9 33.8 0.00 0.03 0.03 19 1011.0
20260503191551 21 299 17.7 35.4 0.00 0.03 0.03 19 1011.3
20260503190057 21 278 16.1 29.0 0.00 0.03 0.03 20 1011.4
20260503184552 21 302 4.8 27.4 0.00 0.03 0.03 20 1011.6
20260503183051 21 290 22.5 37.0 0.00 0.03 0.03 21 1011.7
20260503181559 21 269 8.0 32.2 0.00 0.03 0.03 21 1011.8
20260503180054 21 223 16.1 32.2 0.00 0.03 0.03 22 1011.9
20260503174548 20 306 14.5 27.4 0.00 0.03 0.03 23 1012.0
20260503173048 20 336 11.3 27.4 0.00 0.03 0.03 25 1012.2
20260503171556 20 333 14.5 29.0 0.00 0.03 0.03 25 1012.3